Navy Navigation Satellite System
NORAD ID: 4507
Int'l Code: 1970-067A
Perigee: 950.4 km
Apogee: 1,205.8 km
Inclination: 89.8 °
Period: 106.6 minutes
Semi major axis: 7449 km
Launch date: August 27, 1970
Source: United States (US)
Two Line Element Set (TLE):
1 04507U 70067A 13144.50661701 .00000166 00000-0 22490-3 0 1383
2 04507 089.8266 288.9364 0171401 246.4695 195.3241 13.50360159103638
Source:
NASA's NSSDC Master Catalog entry for NNSS 19 (TRANSIT 19)